North Bend, OR

7:28 PM PDT on April 23, 2017 (GMT -0700)
North Bend Municipal

Weather History for KOTH - July, 2014

Change the Weather History Date:

Tuesday, July 22, 2014

  Actual Average Record
Temperature  
Mean Temperature 60 °F 59 °F  
Max Temperature 64 °F 65 °F 77 °F (1904)
Min Temperature 55 °F 53 °F 39 °F (1917)
Degree Days  
Heating Degree Days 5 6  
Month to date heating degree days 96 143  
Since 1 June heating degree days 293 410  
Since 1 July heating degree days 96 143  
Cooling Degree Days 0 0  
Month to date cooling degree days 0 0  
Year to date cooling degree days 12 0  
Since 1 June cooling degree days 0 0  
Growing Degree Days 10 (Base 50)    
Moisture  
Dew Point 56 °F    
Average Humidity 91    
Maximum Humidity 0    
Minimum Humidity 0    
Precipitation  
Precipitation 0.00 in 0.01 in 1.04 in (1993)
Month to date precipitation 0.00 0.40  
Year to date precipitation 22.43 36.52  
Sea Level Pressure  
Sea Level Pressure 30.07 in    
Wind  
Wind Speed 5 mph (West)    
Max Wind Speed 13 mph    
Max Gust Speed -    
Visibility 8 miles    
Events      
T = Trace of Precipitation, MM = Missing Value Source: NWS Daily Summary

Daily Weather History Graph

Daily Weather History Graph

Search for Another Location

Airport or City:

Trip Planner

Search our weather history database for the weather conditions in past years. The results will help you decide how hot, cold, wet, or windy it might be!

Date:

Astronomy

Jul. 22, 2014 Rise Set
Actual Time 5:56 AM PDT 8:49 PM PDT
Civil Twilight 5:22 AM PDT 9:23 PM PDT
Nautical Twilight 4:40 AM PDT 10:05 PM PDT
Astronomical Twilight 3:50 AM PDT 10:55 PM PDT
Moon 2:35 AM PDT (7/22) 5:31 PM PDT (7/22)
Length of Visible Light 16h 00m
Length of Day
14h 53m
Waning Crescent, 15% of the Moon is Illuminated
Jul 22
Waning Crescent
Jul 26
New
Aug 3
First Quarter
Aug 10
Full
Aug 17
Last Quarter

Hourly Weather History & Observations

Time (PDT) Temp. Dew Point Humidity Pressure Visibility Wind Dir Wind Speed Gust Speed Precip Events Conditions
12:15 AM 57.2 °F 57.2 °F 100% 30.07 in 10.0 mi Calm Calm - N/A   Overcast
12:35 AM 57.2 °F 57.2 °F 100% 30.07 in 10.0 mi Calm Calm - N/A   Overcast
12:55 AM 57.2 °F 57.2 °F 100% 30.06 in 10.0 mi Calm Calm - N/A   Mostly Cloudy
1:15 AM 57.2 °F 55.4 °F 94% 30.06 in 10.0 mi Calm Calm - N/A   Overcast
1:35 AM 57.2 °F 55.4 °F 94% 30.06 in 10.0 mi Calm Calm - N/A   Overcast
1:55 AM 57.2 °F 55.4 °F 94% 30.06 in 10.0 mi Calm Calm - N/A   Overcast
2:15 AM 57.2 °F 55.4 °F 94% 30.06 in 10.0 mi Calm Calm - N/A   Overcast
2:35 AM 57.2 °F 55.4 °F 94% 30.06 in 10.0 mi West 4.6 mph - N/A   Overcast
2:55 AM 57.2 °F 55.4 °F 94% 30.06 in 10.0 mi WNW 5.8 mph - N/A   Overcast
3:15 AM 55.4 °F 55.4 °F 100% 30.06 in 8.0 mi West 6.9 mph - N/A   Overcast
3:35 AM 55.4 °F 55.4 °F 100% 30.06 in 5.0 mi West 4.6 mph - N/A   Overcast
3:55 AM 55.4 °F 55.4 °F 100% 30.05 in 1.5 mi West 4.6 mph - N/A   Overcast
4:15 AM 55.4 °F 55.4 °F 100% 30.06 in 5.0 mi West 4.6 mph - N/A   Overcast
4:35 AM 55.4 °F 55.4 °F 100% 30.06 in 6.0 mi West 4.6 mph - N/A   Overcast
4:55 AM 55.4 °F 55.4 °F 100% 30.05 in 7.0 mi Calm Calm - N/A   Overcast
5:15 AM 55.4 °F 55.4 °F 100% 30.05 in 9.0 mi Calm Calm - N/A   Overcast
5:35 AM 55.4 °F 55.4 °F 100% 30.05 in 10.0 mi Calm Calm - N/A   Overcast
5:55 AM 55.4 °F 55.4 °F 100% 30.05 in 7.0 mi Calm Calm - N/A   Overcast
6:15 AM 55.4 °F 55.4 °F 100% 30.05 in 8.0 mi Calm Calm - N/A   Overcast
6:35 AM 55.4 °F 55.4 °F 100% 30.05 in 8.0 mi Calm Calm - N/A   Overcast
6:55 AM 55.4 °F 55.4 °F 100% 30.05 in 7.0 mi Calm Calm - N/A   Overcast
7:15 AM 55.4 °F 55.4 °F 100% 30.06 in 2.5 mi West 3.5 mph - N/A   Overcast
7:35 AM 55.4 °F 55.4 °F 100% 30.07 in 2.0 mi West 3.5 mph - N/A   Overcast
7:55 AM 55.4 °F 55.4 °F 100% 30.07 in 1.0 mi WNW 3.5 mph - N/A   Overcast
8:15 AM 55.4 °F 55.4 °F 100% 30.07 in 0.8 mi WNW 4.6 mph - N/A   Overcast
8:35 AM 55.4 °F 55.4 °F 100% 30.08 in 0.8 mi West 5.8 mph - N/A   Overcast
8:55 AM 55.4 °F 55.4 °F 100% 30.08 in 0.8 mi West 3.5 mph - N/A   Overcast
9:15 AM 55.4 °F 55.4 °F 100% 30.08 in 3.0 mi West 3.5 mph - N/A   Overcast
9:35 AM 55.4 °F 55.4 °F 100% 30.08 in 1.5 mi West 3.5 mph - N/A   Overcast
10:15 AM 57.2 °F 57.2 °F 100% 30.08 in 10.0 mi Calm Calm - N/A   Overcast
10:35 AM 60.8 °F 60.8 °F 100% 30.08 in 10.0 mi East 3.5 mph - N/A   Overcast
10:55 AM 60.8 °F 60.8 °F 100% 30.09 in 10.0 mi SE 3.5 mph - N/A   Mostly Cloudy
11:15 AM 62.6 °F 60.8 °F 94% 30.08 in 10.0 mi ESE 4.6 mph - N/A   Mostly Cloudy
11:35 AM 62.6 °F 60.8 °F 94% 30.09 in 10.0 mi Calm Calm - N/A   Overcast
11:55 AM 64.4 °F 59.0 °F 83% 30.09 in 10.0 mi WNW 4.6 mph - N/A   Overcast
12:15 PM 64.4 °F 57.2 °F 77% 30.08 in 10.0 mi WNW 5.8 mph - N/A   Mostly Cloudy
12:35 PM 62.6 °F 57.2 °F 82% 30.08 in 10.0 mi West 6.9 mph - N/A   Mostly Cloudy
12:55 PM 64.4 °F 57.2 °F 77% 30.08 in 10.0 mi West 8.1 mph - N/A   Mostly Cloudy
1:15 PM 64.4 °F 55.4 °F 73% 30.08 in 10.0 mi West 10.4 mph - N/A   Overcast
1:35 PM 62.6 °F 55.4 °F 77% 30.08 in 10.0 mi West 10.4 mph - N/A   Overcast
1:55 PM 62.6 °F 57.2 °F 82% 30.08 in 10.0 mi West 10.4 mph - N/A   Overcast
2:15 PM 62.6 °F 57.2 °F 82% 30.08 in 10.0 mi West 10.4 mph - N/A   Overcast
2:35 PM 62.6 °F 55.4 °F 77% 30.08 in 10.0 mi West 10.4 mph - N/A   Overcast
2:55 PM 62.6 °F 57.2 °F 82% 30.08 in 10.0 mi WNW 9.2 mph - N/A   Mostly Cloudy
3:15 PM 62.6 °F 57.2 °F 82% 30.07 in 10.0 mi WNW 11.5 mph - N/A   Partly Cloudy
3:35 PM 62.6 °F 57.2 °F 82% 30.08 in 10.0 mi West 12.7 mph - N/A   Clear
3:55 PM 62.6 °F 57.2 °F 82% 30.07 in 10.0 mi West 11.5 mph - N/A   Mostly Cloudy
4:15 PM 62.6 °F 57.2 °F 82% 30.07 in 10.0 mi West 11.5 mph - N/A   Partly Cloudy
4:35 PM 64.4 °F 57.2 °F 77% 30.07 in 10.0 mi WNW 11.5 mph - N/A   Clear
4:55 PM 62.6 °F 55.4 °F 77% 30.07 in 10.0 mi West 10.4 mph - N/A   Clear
5:15 PM 64.4 °F 55.4 °F 73% 30.07 in 10.0 mi West 9.2 mph - N/A   Clear
5:35 PM 64.4 °F 53.6 °F 68% 30.07 in 10.0 mi West 9.2 mph - N/A   Clear
5:55 PM 64.4 °F 57.2 °F 77% 30.07 in 10.0 mi West 11.5 mph - N/A   Clear
6:15 PM 64.4 °F 55.4 °F 73% 30.06 in 10.0 mi West 12.7 mph - N/A   Clear
6:35 PM 64.4 °F 53.6 °F 68% 30.06 in 10.0 mi West 11.5 mph - N/A   Partly Cloudy
7:15 PM 62.6 °F 53.6 °F 72% 30.07 in 10.0 mi West 9.2 mph - N/A   Mostly Cloudy
7:35 PM 62.6 °F 55.4 °F 77% 30.08 in 10.0 mi WSW 6.9 mph - N/A   Scattered Clouds
7:55 PM 60.8 °F 55.4 °F 82% 30.07 in 10.0 mi WSW 11.5 mph - N/A   Mostly Cloudy
8:15 PM 60.8 °F 55.4 °F 82% 30.08 in 10.0 mi WSW 8.1 mph - N/A   Partly Cloudy
8:35 PM 59.0 °F 57.2 °F 94% 30.07 in 10.0 mi West 8.1 mph - N/A   Clear
8:55 PM 59.0 °F 57.2 °F 94% 30.08 in 10.0 mi West 3.5 mph - N/A   Clear
9:15 PM 57.2 °F 57.2 °F 100% 30.08 in 10.0 mi West 5.8 mph - N/A   Clear
9:35 PM 55.4 °F 53.6 °F 94% 30.08 in 10.0 mi West 3.5 mph - N/A   Clear
9:55 PM 55.4 °F 55.4 °F 100% 30.08 in 10.0 mi Calm Calm - N/A   Clear
10:15 PM 55.4 °F 55.4 °F 100% 30.08 in 10.0 mi Calm Calm - N/A   Partly Cloudy
10:35 PM 57.2 °F 57.2 °F 100% 30.09 in 10.0 mi South 4.6 mph - N/A   Mostly Cloudy
10:55 PM 57.2 °F 57.2 °F 100% 30.09 in 10.0 mi South 3.5 mph - N/A   Overcast
11:35 PM 57.2 °F 57.2 °F 100% 30.10 in 10.0 mi Calm Calm - N/A   Overcast
11:55 PM 57.2 °F 57.2 °F 100% 30.10 in 10.0 mi South 3.5 mph - N/A   Overcast